Time,TemperatureF,DewpointF,PressureIn,WindDirection,WindDirectionDegrees,WindSpeedMPH,WindSpeedGustMPH,Humidity,HourlyPrecipIn,Conditions,Clouds,dailyrainin,SoftwareType,DateUTC
2013-03-16 00:23:00,44.0,33.0,29.76,West,277,2.0,6.0,66,0.00,,,0.00,,2013-03-16 04:23:00,
2013-03-16 00:33:00,44.0,33.0,29.76,West,277,2.0,6.0,66,0.00,,,0.00,,2013-03-16 04:33:00,
2013-03-16 00:43:00,44.0,33.0,29.76,West,277,2.0,6.0,66,0.00,,,0.00,,2013-03-16 04:43:00,
2013-03-16 00:53:00,44.0,33.0,29.76,West,277,2.0,6.0,66,0.00,,,0.00,,2013-03-16 04:53:00,
2013-03-16 01:02:00,44.0,33.0,29.76,West,277,2.0,6.0,66,0.00,,,0.00,,2013-03-16 05:02:00,
2013-03-16 01:22:00,44.0,33.0,29.76,WNW,289,1.0,5.0,66,0.00,,,0.00,,2013-03-16 05:22:00,
2013-03-16 01:32:00,44.0,33.0,29.76,WNW,289,1.0,5.0,66,0.00,,,0.00,,2013-03-16 05:32:00,
2013-03-16 01:42:00,44.0,33.0,29.76,WNW,289,1.0,5.0,66,0.00,,,0.00,,2013-03-16 05:42:00,
2013-03-16 01:53:00,44.0,33.0,29.76,WNW,289,1.0,5.0,66,0.00,,,0.00,,2013-03-16 05:53:00,
2013-03-16 02:02:00,44.0,33.0,29.76,WNW,289,1.0,5.0,66,0.00,,,0.00,,2013-03-16 06:02:00,
2013-03-16 02:22:00,43.0,33.0,29.77,West,267,1.0,5.0,68,0.00,,,0.00,,2013-03-16 06:22:00,
2013-03-16 02:32:00,43.0,33.0,29.77,West,267,1.0,5.0,68,0.00,,,0.00,,2013-03-16 06:32:00,
2013-03-16 02:42:00,43.0,33.0,29.77,West,267,1.0,5.0,68,0.00,,,0.00,,2013-03-16 06:42:00,
2013-03-16 02:52:00,43.0,33.0,29.77,West,267,1.0,5.0,68,0.00,,,0.00,,2013-03-16 06:52:00,
2013-03-16 03:02:00,43.0,33.0,29.77,West,267,1.0,5.0,68,0.00,,,0.00,,2013-03-16 07:02:00,
2013-03-16 03:03:00,42.0,33.0,29.78,West,279,1.0,9.0,69,0.00,,,0.00,,2013-03-16 07:03:00,
2013-03-16 03:22:00,42.0,33.0,29.78,West,279,1.0,9.0,69,0.00,,,0.00,,2013-03-16 07:22:00,
2013-03-16 03:32:00,42.0,33.0,29.78,West,279,1.0,9.0,69,0.00,,,0.00,,2013-03-16 07:32:00,
2013-03-16 03:42:00,42.0,33.0,29.78,West,279,1.0,9.0,69,0.00,,,0.00,,2013-03-16 07:42:00,
2013-03-16 03:52:00,42.0,33.0,29.78,West,279,1.0,9.0,69,0.00,,,0.00,,2013-03-16 07:52:00,
2013-03-16 04:23:00,40.0,31.0,29.79,WNW,289,1.0,4.0,70,0.00,,,0.00,,2013-03-16 08:23:00,
2013-03-16 04:33:00,40.0,31.0,29.79,WNW,289,1.0,4.0,70,0.00,,,0.00,,2013-03-16 08:33:00,
2013-03-16 04:42:00,40.0,31.0,29.79,WNW,289,1.0,4.0,70,0.00,,,0.00,,2013-03-16 08:42:00,
2013-03-16 04:52:00,40.0,31.0,29.79,WNW,289,1.0,4.0,70,0.00,,,0.00,,2013-03-16 08:52:00,
2013-03-16 05:02:00,40.0,31.0,29.79,WNW,289,1.0,4.0,70,0.00,,,0.00,,2013-03-16 09:02:00,
2013-03-16 05:03:00,39.0,29.0,29.78,West,278,0.0,4.0,67,0.00,,,0.00,,2013-03-16 09:03:00,
2013-03-16 05:22:00,39.0,29.0,29.78,West,278,0.0,4.0,67,0.00,,,0.00,,2013-03-16 09:22:00,
2013-03-16 05:33:00,39.0,29.0,29.78,West,278,0.0,4.0,67,0.00,,,0.00,,2013-03-16 09:33:00,
2013-03-16 05:43:00,39.0,29.0,29.78,West,278,0.0,4.0,67,0.00,,,0.00,,2013-03-16 09:43:00,
2013-03-16 05:53:00,39.0,29.0,29.78,West,278,0.0,4.0,67,0.00,,,0.00,,2013-03-16 09:53:00,
2013-03-16 06:03:00,38.0,28.0,29.78,North,355,0.0,2.0,68,0.00,,,0.00,,2013-03-16 10:03:00,
2013-03-16 06:23:00,38.0,28.0,29.78,North,355,0.0,2.0,68,0.00,,,0.00,,2013-03-16 10:23:00,
2013-03-16 06:32:00,38.0,28.0,29.78,North,355,0.0,2.0,68,0.00,,,0.00,,2013-03-16 10:32:00,
2013-03-16 06:42:00,38.0,28.0,29.78,North,355,0.0,2.0,68,0.00,,,0.00,,2013-03-16 10:42:00,
2013-03-16 06:53:00,38.0,28.0,29.78,North,355,0.0,2.0,68,0.00,,,0.00,,2013-03-16 10:53:00,
2013-03-16 08:22:00,37.0,27.0,29.79,NE,52,0.0,6.0,68,0.00,,,0.00,,2013-03-16 12:22:00,
2013-03-16 08:32:00,37.0,27.0,29.79,NE,52,0.0,6.0,68,0.00,,,0.00,,2013-03-16 12:32:00,
2013-03-16 08:43:00,37.0,27.0,29.79,NE,52,0.0,6.0,68,0.00,,,0.00,,2013-03-16 12:43:00,
2013-03-16 08:53:00,37.0,27.0,29.79,NE,52,0.0,6.0,68,0.00,,,0.00,,2013-03-16 12:53:00,
2013-03-16 09:02:00,37.0,27.0,29.79,NE,52,0.0,6.0,68,0.00,,,0.00,,2013-03-16 13:02:00,
2013-03-16 10:03:00,34.0,28.0,29.80,NE,46,0.0,6.0,78,0.00,,,0.00,,2013-03-16 14:03:00,
2013-03-16 10:22:00,34.0,28.0,29.80,NE,46,0.0,6.0,78,0.00,,,0.00,,2013-03-16 14:22:00,
2013-03-16 10:32:00,34.0,28.0,29.80,NE,46,0.0,6.0,78,0.00,,,0.00,,2013-03-16 14:32:00,
2013-03-16 10:42:00,34.0,28.0,29.80,NE,46,0.0,6.0,78,0.00,,,0.00,,2013-03-16 14:42:00,
2013-03-16 10:52:00,34.0,28.0,29.80,NE,46,0.0,6.0,78,0.00,,,0.00,,2013-03-16 14:52:00,
2013-03-16 11:03:00,33.0,30.0,29.81,NE,40,0.0,4.0,87,0.00,,,0.00,,2013-03-16 15:03:00,
2013-03-16 11:23:00,33.0,30.0,29.81,NE,40,0.0,4.0,87,0.00,,,0.00,,2013-03-16 15:23:00,
2013-03-16 11:33:00,33.0,30.0,29.81,NE,40,0.0,4.0,87,0.00,,,0.00,,2013-03-16 15:33:00,
2013-03-16 11:44:00,33.0,30.0,29.81,NE,40,0.0,4.0,87,0.00,,,0.00,,2013-03-16 15:44:00,
2013-03-16 11:53:00,33.0,30.0,29.81,NE,40,0.0,4.0,87,0.00,,,0.00,,2013-03-16 15:53:00,
2013-03-16 12:03:00,31.0,29.0,29.77,ENE,69,0.0,5.0,92,0.00,,,0.00,,2013-03-16 16:03:00,
2013-03-16 12:23:00,31.0,29.0,29.77,ENE,69,0.0,5.0,92,0.00,,,0.00,,2013-03-16 16:23:00,
2013-03-16 12:33:00,31.0,29.0,29.77,ENE,69,0.0,5.0,92,0.00,,,0.00,,2013-03-16 16:33:00,
2013-03-16 12:43:00,31.0,29.0,29.77,ENE,69,0.0,5.0,92,0.00,,,0.00,,2013-03-16 16:43:00,
2013-03-16 12:53:00,31.0,29.0,29.77,ENE,69,0.0,5.0,92,0.00,,,0.00,,2013-03-16 16:53:00,
2013-03-16 13:23:00,31.0,29.0,29.75,NE,52,3.0,10.0,93,0.00,,,0.00,,2013-03-16 17:23:00,
2013-03-16 13:33:00,31.0,29.0,29.75,NE,52,3.0,10.0,93,0.00,,,0.00,,2013-03-16 17:33:00,
2013-03-16 13:43:00,31.0,29.0,29.75,NE,52,3.0,10.0,93,0.00,,,0.00,,2013-03-16 17:43:00,
2013-03-16 13:53:00,31.0,29.0,29.75,NE,52,3.0,10.0,93,0.00,,,0.00,,2013-03-16 17:53:00,
2013-03-16 14:02:00,31.0,29.0,29.75,NE,52,3.0,10.0,93,0.00,,,0.00,,2013-03-16 18:02:00,
2013-03-16 14:23:00,31.0,29.0,29.74,ENE,64,2.0,10.0,93,0.00,,,0.00,,2013-03-16 18:23:00,
2013-03-16 14:33:00,31.0,29.0,29.74,ENE,64,2.0,10.0,93,0.00,,,0.00,,2013-03-16 18:33:00,
2013-03-16 14:43:00,31.0,29.0,29.74,ENE,64,2.0,10.0,93,0.00,,,0.00,,2013-03-16 18:43:00,
2013-03-16 14:53:00,31.0,29.0,29.74,ENE,64,2.0,10.0,93,0.00,,,0.00,,2013-03-16 18:53:00,
2013-03-16 15:02:00,31.0,29.0,29.74,ENE,64,2.0,10.0,93,0.00,,,0.00,,2013-03-16 19:02:00,
2013-03-16 15:23:00,30.0,28.0,29.71,ENE,69,2.0,10.0,94,0.00,,,0.00,,2013-03-16 19:23:00,
2013-03-16 15:33:00,30.0,28.0,29.71,ENE,69,2.0,10.0,94,0.00,,,0.00,,2013-03-16 19:33:00,
2013-03-16 15:42:00,30.0,28.0,29.71,ENE,69,2.0,10.0,94,0.00,,,0.00,,2013-03-16 19:42:00,
2013-03-16 15:53:00,30.0,28.0,29.71,ENE,69,2.0,10.0,94,0.00,,,0.00,,2013-03-16 19:53:00,
2013-03-16 16:02:00,30.0,28.0,29.71,ENE,69,2.0,10.0,94,0.00,,,0.00,,2013-03-16 20:02:00,
2013-03-16 16:22:00,31.0,29.0,29.73,NE,45,3.0,6.0,94,0.00,,,0.00,,2013-03-16 20:22:00,
2013-03-16 16:33:00,31.0,29.0,29.73,NE,45,3.0,6.0,94,0.00,,,0.00,,2013-03-16 20:33:00,
2013-03-16 16:42:00,31.0,29.0,29.73,NE,45,3.0,6.0,94,0.00,,,0.00,,2013-03-16 20:42:00,
2013-03-16 16:52:00,31.0,29.0,29.73,NE,45,3.0,6.0,94,0.00,,,0.00,,2013-03-16 20:52:00,
2013-03-16 17:02:00,31.0,29.0,29.73,NE,45,3.0,6.0,94,0.00,,,0.00,,2013-03-16 21:02:00,
2013-03-16 17:03:00,31.0,29.0,29.72,NE,53,2.0,7.0,94,0.01,,,0.01,,2013-03-16 21:03:00,
2013-03-16 17:23:00,31.0,29.0,29.72,NE,53,2.0,7.0,94,0.01,,,0.01,,2013-03-16 21:23:00,
2013-03-16 17:33:00,31.0,29.0,29.72,NE,53,2.0,7.0,94,0.01,,,0.01,,2013-03-16 21:33:00,
2013-03-16 17:43:00,31.0,29.0,29.72,NE,53,2.0,7.0,94,0.01,,,0.01,,2013-03-16 21:43:00,
2013-03-16 17:53:00,31.0,29.0,29.72,NE,53,2.0,7.0,94,0.01,,,0.01,,2013-03-16 21:53:00,
2013-03-16 18:23:00,30.0,29.0,29.73,NE,53,0.0,0.0,95,0.01,,,0.02,,2013-03-16 22:23:00,
2013-03-16 18:33:00,30.0,29.0,29.73,NE,53,0.0,0.0,95,0.01,,,0.02,,2013-03-16 22:33:00,
2013-03-16 18:42:00,30.0,29.0,29.73,NE,53,0.0,0.0,95,0.01,,,0.02,,2013-03-16 22:42:00,
2013-03-16 18:53:00,30.0,29.0,29.73,NE,53,0.0,0.0,95,0.01,,,0.02,,2013-03-16 22:53:00,
2013-03-16 19:02:00,30.0,29.0,29.73,NE,53,0.0,0.0,95,0.01,,,0.02,,2013-03-16 23:02:00,
2013-03-16 20:23:00,30.0,29.0,29.79,NE,46,0.0,0.0,95,0.00,,,0.03,,2013-03-17 00:23:00,
2013-03-16 20:33:00,30.0,29.0,29.79,NE,46,0.0,0.0,95,0.00,,,0.03,,2013-03-17 00:33:00,
2013-03-16 20:43:00,30.0,29.0,29.79,NE,46,0.0,0.0,95,0.00,,,0.03,,2013-03-17 00:43:00,
2013-03-16 20:52:00,30.0,29.0,29.79,NE,46,0.0,0.0,95,0.00,,,0.03,,2013-03-17 00:52:00,
2013-03-16 21:02:00,30.0,29.0,29.79,NE,46,0.0,0.0,95,0.00,,,0.03,,2013-03-17 01:02:00,
2013-03-16 21:03:00,31.0,30.0,29.83,NE,40,0.0,0.0,95,0.00,,,0.03,,2013-03-17 01:03:00,
2013-03-16 21:22:00,31.0,30.0,29.83,NE,40,0.0,0.0,95,0.00,,,0.03,,2013-03-17 01:22:00,
2013-03-16 21:33:00,31.0,30.0,29.83,NE,40,0.0,0.0,95,0.00,,,0.03,,2013-03-17 01:33:00,
2013-03-16 21:43:00,31.0,30.0,29.83,NE,40,0.0,0.0,95,0.00,,,0.03,,2013-03-17 01:43:00,
2013-03-16 21:53:00,31.0,30.0,29.83,NE,40,0.0,0.0,95,0.00,,,0.03,,2013-03-17 01:53:00,
2013-03-16 22:03:00,31.0,30.0,29.86,NE,52,0.0,0.0,95,0.00,,,0.03,,2013-03-17 02:03:00,
2013-03-16 22:23:00,31.0,30.0,29.86,NE,52,0.0,0.0,95,0.00,,,0.03,,2013-03-17 02:23:00,
2013-03-16 22:33:00,31.0,30.0,29.86,NE,52,0.0,0.0,95,0.00,,,0.03,,2013-03-17 02:33:00,
2013-03-16 22:43:00,31.0,30.0,29.86,NE,52,0.0,0.0,95,0.00,,,0.03,,2013-03-17 02:43:00,
2013-03-16 22:53:00,31.0,30.0,29.86,NE,52,0.0,0.0,95,0.00,,,0.03,,2013-03-17 02:53:00,
2013-03-16 23:03:00,31.0,30.0,29.88,NW,323,0.0,0.0,95,0.01,,,0.04,,2013-03-17 03:03:00,
2013-03-16 23:23:00,31.0,30.0,29.88,NW,323,0.0,0.0,95,0.01,,,0.04,,2013-03-17 03:23:00,
2013-03-16 23:34:00,31.0,30.0,29.88,NW,323,0.0,0.0,95,0.01,,,0.04,,2013-03-17 03:34:00,
2013-03-16 23:43:00,31.0,30.0,29.88,NW,323,0.0,0.0,95,0.01,,,0.04,,2013-03-17 03:43:00,
2013-03-16 23:53:00,31.0,30.0,29.88,NW,323,0.0,0.0,95,0.01,,,0.04,,2013-03-17 03:53:00,